La Palma > ESTACION METEOROLÓGICA Hoya Grande - Garafia

DATOS ACTUALES Online

Ultima actulizacion 3 minutos

16.8 ºC

Temperatura

100

Humedad (%)

1015.2

Presión (mb)

0

Precipitación (mm)

5 SW

Viento (Km/h)

DATOS DIARIOS

Temperatura últimas 24 horas (ºC)

Humedad últimas 24 horas (%)

Presión atmosférica últimas 24 horas (mb)

Precipitaciones últimas 23 horas (mm)

Viento últimas 24 horas (Km/h)

Hora Temperatura (°C) ºC Precipitación (mm) mm Presión (mb) mb Humedad (%) % Viento (Km/h) km/h
25 - 00:00 15.8 0 1019 80 6 N
25 - 01:00 15.4 0 1018 84 7 N
25 - 02:00 15.7 0 1018 82 12 N
25 - 03:00 16 0 1017 83 11 W
25 - 04:00 16.5 0 1017 84 16 N
25 - 05:00 16.3 0 1017 84 11 N
25 - 06:00 16.4 0 1017 78 11 N
25 - 07:00 16.7 0 1017 79 16 N
25 - 08:00 16.7 0 1017 76 10 N
25 - 09:00 17.7 0 1018 79 17 N
25 - 10:00 18.4 0 1019 79 18 N
25 - 11:00 19.4 0 1019 79 19 N
25 - 12:00 18.7 0 1018 89 18 N
25 - 13:00 17.8 0 1018 99 17 N
25 - 14:00 16.8 0 1017 100 16 N
25 - 15:00 17.2 0 1017 100 17 N
25 - 16:00 17.6 0 1016 100 13 N
25 - 17:00 17.7 0 1016 100 11 W
25 - 18:00 17.2 0 1016 100 11 W
25 - 19:00 17.2 0 1016 100 14 N
25 - 20:00 17 0 1016 100 6 W
25 - 21:00 16.8 0 1016 100 7 N
25 - 22:00 16.9 0 1016 100 7 W
25 - 23:00 16.8 0 1016 100 11 W
26 - 00:00 16.8 0 1015 100 5 SW
Apalmet utiliza cookies propias y de terceros para mejorar la usabilidad y la experiencia web. Política de cookies.